{"data":{"norad_id":37789,"intl_designator":"2011-044B","name":"NIGERIASAT-2","alt_names":[],"object_type":"PAYLOAD","status":"ACTIVE","operator":null,"country":"NIG","launch_date":"2011-08-17","launch_site_code":"DLS","launch_vehicle":null,"mission":null,"orbit_class":"UNKNOWN","rcs_meters":0.4991,"size_class":null,"mass_kg":null,"dimensions":null,"purposes":[],"wikipedia_slug":null,"has_3d_model":false,"image_url":null,"decayed_at":null,"tle_current":{"epoch":"2026-09-20T04:52:59.714688Z","epoch_age_seconds":55909,"freshness":"FRESH","line1":"1 37789U 11044B   26263.20346892  .00000360  00000+0  66918-4 0  9999","line2":"2 37789  97.8906 237.2735 0029789 175.5955 311.4516 14.70584151804533","mean_motion":14.70584151,"eccentricity":0.0029789,"inclination_deg":97.8906,"raan_deg":237.2735,"arg_perigee_deg":175.5955,"mean_anomaly_deg":311.4516,"bstar":6.6918e-5,"rev_number":80453,"period_min":97.92027195593,"perigee_km":638.24032951173,"apogee_km":680.16739891253,"semimajor_km":7037.3408642121,"source":"CELESTRAK","updated_at":"2026-09-20T09:00:13.807953Z"}}}